Погода в Кижме

Поиск расширенной информации на нашем сайте:

Полезная информация:

Новости сайта



02.01.2020
Опубликован Долгосрочный прогноз погоды по городам России и ближнего зарубежья на январь 2020 года.
Карты: Прогноз на январь и февраль 2020 года, Сравнение прогнозируемой аномалии приземной температуры воздуха на январь 2020 года по разным моделям.




Погода в Кижме - сегодня

Время (UTC), дата Ветер
(°,м/с) 
Видим.   Явления Облачность Т
(°С)
Тd
(°С)
f(%) Тe
(°С)
Pmin
(гПа)
dP
(гПа)
Po
(мм)
O2
(г/м3)
Тmin Tmax R s Состояние
почвы
12 22.10.21 220 (ЮЗ) 11{16}  18000 м    н/о 
+1.6 +1.2 97 -3  1017.1  1.4  738  295           
15 22.10.21 220 (ЮЗ) 10  19000 м    н/о 
+2.9 +2.5 97 -1  1018.1  1.1  739  294    +2.9       
18 22.10.21 220 (ЮЗ) 11  17000 м    ?/?  
+3.9 +3.6 98 1017.8  -0.1  738  293    +2.9       
21 22.10.21 220 (ЮЗ) 10  20000 м    н/о 
+4.9 +3.7 92 +1  1017.5  -0.2  738  292           
00 23.10.21 210 (ЮЗ) 10{17}  20000 м    ясно 
+3.9 +2.1 88 1017.3  -0.3  738  293           
03 23.10.21 220 (ЮЗ) 11  20000 м    ясно 
+3.3 +1.7 89 -1  1018  0.6  739  294        <0.5   
06 23.10.21 230 (ЮЗ) 11{16}  20000 м    ясно 
+8.2 +3.7 73 +5  1018.6  1.1  739  289           
09 23.10.21 220 (ЮЗ) 12  20000 м    ясно 
+12.1 +5.1 62 +10  1018  -0.1  739  284           
12 23.10.21 230 (ЮЗ) 11{18}  20000 м    н/о 
+12.1 +4.6 60 +10  1018.8  0.8  740  285           
15 23.10.21 230 (ЮЗ) 10  20000 м    н/о 
+11.6 +6.3 70 +9  1020.7  1.8  741  285    +12.7       
18 23.10.21 220 (ЮЗ) 20000 м    н/о 
+10.7 +7.8 82 +9  1021.3  0.5  742  286    +12.7       
21 23.10.21 220 (ЮЗ) 20000 м    н/о 
+9.3 +7.4 88 +7  1022.6  1.1  742  288           
00 24.10.21 220 (ЮЗ) 20000 м    ясно 
+6.3 +5.3 93 +4  1023.2  0.2  743  292           
03 24.10.21 220 (ЮЗ) 20000 м    н/о 
+6.9 +4.4 84 +4  1023.7  0.5  743  291        <0.5   
06 24.10.21 220 (ЮЗ) 20000 м    ясно 
+11.2 +3.3 58 +9  1023.2  743  287           
09 24.10.21 210 (ЮЗ) 10  20000 м    н/о 
+14.3 -0.2 37 +13  1021.9  -0.9  742  284           
12 24.10.21 200 (Ю) 20000 м    ясно 
+11.4 -3.9 34 +10  1021.5  -0.7  742  287           
15 24.10.21 190 (Ю) 20000 м    ясно 
+6.7 -4.1 46 +4  1021.8  -0.3  742  292    +14.3       
18 24.10.21 200 (Ю) 20000 м    ясно 
+3.6 -3.9 58 +1  1021.3  -0.8  741  295    +14.3       
21 24.10.21 190 (Ю) 20000 м    ясно 
+2.1 -3.8 65 +1  1020.4  -1.1  740  296           
00 25.10.21 190 (Ю) 20000 м    ясно 
+0.8 -3.5 73 1020  -0.5  740  298           
03 25.10.21 190 (Ю) 20000 м    ясно 
+0.6 -2.1 82 1019.8  -0.2  740  298        <0.5   
06 25.10.21 210 (ЮЗ) 20000 м    ясно 
+9.8 -0.7 48 +8  1017.9  -0.8  739  287           
09 25.10.21 200 (Ю) 20000 м    н/о 
+12.9 -2.2 35 +12  1015.8  -1.7  738  284           
12 25.10.21 180 (Ю) 20000 м    н/о 
+11.5 -0.3 44 +10  1014.6  -1.3  737  285           
Время (UTC), дата Ветер
(°,м/с) 
Видим.   Явления Облачность Т
(°С)
Тd
(°С)
f(%) Тe
(°С)
Pmin
(гПа)
dP
(гПа)
Po
(мм)
O2
(г/м3)
Тmin Tmax R s Состояние
почвы

Для получения пояснительной информации подведите курсор к названию столбца.

ПОГОДА в Кижме - архив

Всё, что Вы хотите узнать о погоде в Кижме - удобно и подробно!

Выберите нужную дату (начиная с 1 января 2019* года) и нажмите кнопку "Найти".
Будут отображены архивные сводки погоды по пункту Кижма, начиная с указанной даты.


Отображать данные в формате CSV (для использования в таблицах Excel)


Внимание! Наш архив погоды предназначен исключительно для личного некоммерческого использования в познавательных целях. Если Вам необходимы официальные справки о состоянии погоды (для производственных, юридических, коммерческих и т.п. целей), обращайтесь в органы Росгидромета.

*Примечание: данная дата относится к архиву по метеостанциям СССР (Россия, СНГ, Балтия).
Архив по метеостанциям Зарубежной Европы и Азии (кроме Китая) хранится 10 дней, по другим регионам земного шара (Китай, Африка, Америка, Австралия, Океания) - 1 день.

Кижма - район местоположения метеостанции


Название, широта, долгота, высота метеостанции:
Кижма 51.6°ш. 67.6°д. 272 м над ур. моря [Казахстан]

Дополнительная информация

В oтличие oт бoльшинства пoгoдных сайтoв мы публикуем пoдрoбную метеoинфoрмацию в детальнoм прoфессиoнальнoм фoрмате.

Характеристики температуры и влажнoсти вoздуха измеряются на высoте 2 м в тени вдали oт зданий и деревьев.
Скoрoсть ветра измеряется на высoте 10 м (на урoвне рoста челoвека скoрoсть ветра ниже в 1.5-2 раза). Если метеoстанция нахoдится в гoрoде или в лесу, тo скoрoсть ветра занижена на 2-4 м/с пo сравнению с oткрытым местoм. Скoрoсть ветра над акватoриями крупных рек и oзёр, а также на вершинах хoлмoв на 2-5 м/с выше, чем в oбычных услoвиях.
Атмoсфернoе давление в разных тoчках местнoсти мoжет значительнo oтличаться oт давления на метеoстанции, в зависимoсти oт услoвий рельефа (при пoдъёме на 10 м давление пoнижается примернo на 1 мм рт.ст.).